Time,TemperatureF,DewpointF,PressureIn,WindDirection,WindDirectionDegrees,WindSpeedMPH,WindSpeedGustMPH,Humidity,HourlyPrecipIn,Conditions,Clouds,dailyrainin,SoftwareType,DateUTC
2013-06-26 00:01:00,56.9,52.4,29.80,North,0,0.4,0.9,85,0.00,,,0.00,WUHU216HW,2013-06-26 06:01:00,
2013-06-26 00:11:00,56.7,52.2,29.80,North,0,0.9,0.9,85,0.00,,,0.00,WUHU216HW,2013-06-26 06:11:00,
2013-06-26 00:21:00,56.5,52.4,29.80,NNE,23,1.1,1.3,86,0.00,,,0.00,WUHU216HW,2013-06-26 06:21:00,
2013-06-26 00:31:00,56.5,52.4,29.79,NE,45,1.1,1.6,86,0.00,,,0.00,WUHU216HW,2013-06-26 06:31:00,
2013-06-26 00:41:00,56.5,52.0,29.80,NNE,23,0.0,1.3,85,0.00,,,0.00,WUHU216HW,2013-06-26 06:41:00,
2013-06-26 00:51:00,56.5,52.0,29.80,West,270,0.2,1.6,85,0.00,,,0.00,WUHU216HW,2013-06-26 06:51:00,
2013-06-26 01:02:00,56.5,52.0,29.80,West,270,0.4,1.1,85,0.00,,,0.00,WUHU216HW,2013-06-26 07:02:00,
2013-06-26 01:12:00,56.3,51.8,29.80,WSW,248,0.4,1.1,85,0.00,,,0.00,WUHU216HW,2013-06-26 07:12:00,
2013-06-26 01:22:00,56.3,51.8,29.81,North,0,0.2,0.7,85,0.00,,,0.00,WUHU216HW,2013-06-26 07:22:00,
2013-06-26 01:32:00,56.3,52.2,29.80,ENE,68,1.8,2.0,86,0.00,,,0.00,WUHU216HW,2013-06-26 07:32:00,
2013-06-26 01:42:00,56.2,52.0,29.80,East,90,0.4,2.5,86,0.00,,,0.00,WUHU216HW,2013-06-26 07:42:00,
2013-06-26 01:52:00,56.2,52.0,29.81,West,270,1.1,1.6,86,0.00,,,0.00,WUHU216HW,2013-06-26 07:52:00,
2013-06-26 02:02:00,56.0,51.9,29.81,ENE,68,2.5,2.5,86,0.01,,,0.01,WUHU216HW,2013-06-26 08:02:00,
2013-06-26 02:12:00,55.8,51.9,29.81,NNE,23,1.8,2.9,87,0.03,,,0.03,WUHU216HW,2013-06-26 08:12:00,
2013-06-26 02:22:00,55.8,51.9,29.81,North,0,0.9,2.2,87,0.03,,,0.03,WUHU216HW,2013-06-26 08:22:00,
2013-06-26 02:32:00,55.8,52.3,29.81,NE,45,2.2,2.5,88,0.03,,,0.03,WUHU216HW,2013-06-26 08:32:00,
2013-06-26 02:42:00,55.6,52.1,29.81,NE,45,0.9,2.5,88,0.03,,,0.03,WUHU216HW,2013-06-26 08:42:00,
2013-06-26 02:52:00,55.6,52.1,29.81,North,0,2.5,2.5,88,0.03,,,0.03,WUHU216HW,2013-06-26 08:52:00,
2013-06-26 03:02:00,55.4,51.9,29.81,NNE,23,0.4,1.6,88,0.02,,,0.03,WUHU216HW,2013-06-26 09:02:00,
2013-06-26 03:12:00,55.4,51.9,29.81,WNW,293,2.2,2.2,88,0.00,,,0.03,WUHU216HW,2013-06-26 09:12:00,
2013-06-26 03:22:00,55.4,51.9,29.82,West,270,1.8,3.1,88,0.00,,,0.03,WUHU216HW,2013-06-26 09:22:00,
2013-06-26 03:32:00,55.3,51.8,29.82,NNW,338,0.0,1.1,88,0.00,,,0.03,WUHU216HW,2013-06-26 09:32:00,
2013-06-26 03:42:00,55.3,51.8,29.82,North,0,0.9,1.8,88,0.00,,,0.03,WUHU216HW,2013-06-26 09:42:00,
2013-06-26 03:52:00,55.4,51.9,29.83,North,0,0.0,0.2,88,0.00,,,0.03,WUHU216HW,2013-06-26 09:52:00,
2013-06-26 04:02:00,55.4,51.9,29.83,East,90,0.0,1.1,88,0.00,,,0.03,WUHU216HW,2013-06-26 10:02:00,
2013-06-26 04:12:00,55.4,51.9,29.83,NNE,23,0.0,1.1,88,0.00,,,0.03,WUHU216HW,2013-06-26 10:12:00,
2013-06-26 04:22:00,55.4,51.9,29.83,North,0,0.4,2.2,88,0.00,,,0.03,WUHU216HW,2013-06-26 10:22:00,
2013-06-26 04:32:00,55.4,51.9,29.83,North,0,0.4,1.1,88,0.00,,,0.03,WUHU216HW,2013-06-26 10:32:00,
2013-06-26 04:42:00,55.3,51.8,29.84,NW,315,1.3,2.0,88,0.00,,,0.03,WUHU216HW,2013-06-26 10:42:00,
2013-06-26 04:52:00,55.3,51.8,29.84,North,0,0.4,1.3,88,0.00,,,0.03,WUHU216HW,2013-06-26 10:52:00,
2013-06-26 05:02:00,55.1,51.6,29.84,West,270,0.4,1.3,88,0.00,,,0.03,WUHU216HW,2013-06-26 11:02:00,
2013-06-26 05:12:00,55.1,51.8,29.84,NE,45,0.7,1.8,89,0.00,,,0.03,WUHU216HW,2013-06-26 11:12:00,
2013-06-26 05:22:00,55.1,51.8,29.84,North,0,0.4,1.1,89,0.00,,,0.03,WUHU216HW,2013-06-26 11:22:00,
2013-06-26 05:32:00,55.1,51.8,29.84,West,270,1.1,1.6,89,0.00,,,0.03,WUHU216HW,2013-06-26 11:32:00,
2013-06-26 05:42:00,54.9,51.7,29.85,NW,315,1.3,1.6,89,0.00,,,0.03,WUHU216HW,2013-06-26 11:42:00,
2013-06-26 05:52:00,54.7,51.5,29.85,NW,315,1.6,1.6,89,0.00,,,0.03,WUHU216HW,2013-06-26 11:52:00,
2013-06-26 06:02:00,54.7,51.5,29.85,NNE,23,0.9,1.6,89,0.00,,,0.03,WUHU216HW,2013-06-26 12:02:00,
2013-06-26 06:12:00,54.7,51.5,29.86,NNE,23,0.2,2.2,89,0.00,,,0.03,WUHU216HW,2013-06-26 12:12:00,
2013-06-26 06:23:00,54.7,51.5,29.86,North,0,0.2,1.6,89,0.00,,,0.03,WUHU216HW,2013-06-26 12:23:00,
2013-06-26 06:33:00,54.5,51.3,29.87,NW,315,0.0,1.8,89,0.00,,,0.03,WUHU216HW,2013-06-26 12:33:00,
2013-06-26 06:43:00,54.5,51.3,29.87,North,0,0.4,2.5,89,0.00,,,0.03,WUHU216HW,2013-06-26 12:43:00,
2013-06-26 06:53:00,54.5,51.3,29.87,NNW,338,0.9,2.0,89,0.00,,,0.03,WUHU216HW,2013-06-26 12:53:00,
2013-06-26 07:03:00,54.5,51.3,29.88,North,0,0.4,1.8,89,0.00,,,0.03,WUHU216HW,2013-06-26 13:03:00,
2013-06-26 07:13:00,54.7,51.8,29.87,NE,45,0.7,0.7,90,0.00,,,0.03,WUHU216HW,2013-06-26 13:13:00,
2013-06-26 07:23:00,55.1,51.8,29.88,NNE,23,1.6,2.5,89,0.00,,,0.03,WUHU216HW,2013-06-26 13:23:00,
2013-06-26 07:33:00,55.1,51.8,29.88,North,0,1.1,2.0,89,0.00,,,0.03,WUHU216HW,2013-06-26 13:33:00,
2013-06-26 07:43:00,55.1,51.8,29.88,North,0,0.4,2.0,89,0.00,,,0.03,WUHU216HW,2013-06-26 13:43:00,
2013-06-26 07:53:00,55.1,51.8,29.88,NNE,23,1.8,2.5,89,0.00,,,0.03,WUHU216HW,2013-06-26 13:53:00,
2013-06-26 08:03:00,55.3,52.0,29.88,ENE,68,1.6,2.5,89,0.01,,,0.04,WUHU216HW,2013-06-26 14:03:00,
2013-06-26 08:13:00,55.6,52.4,29.89,East,90,0.4,1.1,89,0.01,,,0.04,WUHU216HW,2013-06-26 14:13:00,
2013-06-26 08:23:00,55.8,52.6,29.89,NNE,23,0.4,1.3,89,0.01,,,0.04,WUHU216HW,2013-06-26 14:23:00,
2013-06-26 08:33:00,56.0,52.5,29.89,WSW,248,0.0,0.9,88,0.01,,,0.04,WUHU216HW,2013-06-26 14:33:00,
2013-06-26 08:43:00,56.3,52.8,29.89,SSE,158,0.2,0.9,88,0.01,,,0.04,WUHU216HW,2013-06-26 14:43:00,
2013-06-26 08:53:00,56.7,53.2,29.89,South,180,1.8,1.8,88,0.01,,,0.04,WUHU216HW,2013-06-26 14:53:00,
2013-06-26 09:03:00,57.2,53.7,29.89,SW,225,2.0,2.0,88,0.00,,,0.04,WUHU216HW,2013-06-26 15:03:00,
2013-06-26 09:13:00,57.8,53.9,29.89,SSW,203,0.4,2.7,87,0.00,,,0.04,WUHU216HW,2013-06-26 15:13:00,
2013-06-26 09:23:00,58.3,54.5,29.89,WSW,248,2.7,2.7,87,0.00,,,0.04,WUHU216HW,2013-06-26 15:23:00,
2013-06-26 09:33:00,58.9,55.0,29.89,SSE,158,0.2,3.1,87,0.00,,,0.04,WUHU216HW,2013-06-26 15:33:00,
2013-06-26 09:43:00,59.6,55.7,29.89,South,180,1.1,1.3,87,0.00,,,0.04,WUHU216HW,2013-06-26 15:43:00,
2013-06-26 09:53:00,60.3,56.2,29.90,SW,225,1.3,1.3,86,0.00,,,0.04,WUHU216HW,2013-06-26 15:53:00,
2013-06-26 10:03:00,61.0,56.2,29.90,SSW,203,0.9,1.8,84,0.00,,,0.04,WUHU216HW,2013-06-26 16:03:00,
2013-06-26 10:13:00,62.1,56.5,29.90,SSW,203,0.0,2.5,82,0.00,,,0.04,WUHU216HW,2013-06-26 16:13:00,
2013-06-26 10:23:00,62.3,56.0,29.90,West,270,1.8,2.5,80,0.00,,,0.04,WUHU216HW,2013-06-26 16:23:00,
2013-06-26 10:33:00,62.3,56.0,29.90,SSE,158,1.3,1.3,80,0.00,,,0.04,WUHU216HW,2013-06-26 16:33:00,
2013-06-26 10:43:00,63.0,56.3,29.91,WSW,248,2.9,4.0,79,0.00,,,0.04,WUHU216HW,2013-06-26 16:43:00,
2013-06-26 10:53:00,63.4,56.0,29.90,SE,135,0.2,2.9,77,0.00,,,0.04,WUHU216HW,2013-06-26 16:53:00,
2013-06-26 11:03:00,63.7,56.3,29.91,NE,45,0.4,3.4,77,0.00,,,0.04,WUHU216HW,2013-06-26 17:03:00,
2013-06-26 11:13:00,64.3,56.5,29.91,West,270,3.4,3.4,76,0.00,,,0.04,WUHU216HW,2013-06-26 17:13:00,
2013-06-26 11:23:00,64.8,57.1,29.91,SSW,203,0.9,2.5,76,0.00,,,0.04,WUHU216HW,2013-06-26 17:23:00,
2013-06-26 11:33:00,66.8,59.0,29.91,NE,45,1.6,3.4,76,0.00,,,0.04,WUHU216HW,2013-06-26 17:33:00,
2013-06-26 11:44:00,67.7,58.8,29.91,North,0,0.7,5.4,73,0.00,,,0.04,WUHU216HW,2013-06-26 17:44:00,
2013-06-26 11:54:00,68.6,58.9,29.90,SE,135,3.4,6.0,71,0.00,,,0.04,WUHU216HW,2013-06-26 17:54:00,
2013-06-26 12:04:00,69.7,59.4,29.90,SSE,158,2.7,7.8,70,0.00,,,0.04,WUHU216HW,2013-06-26 18:04:00,
2013-06-26 12:14:00,70.6,59.1,29.90,West,270,1.3,5.6,67,0.00,,,0.04,WUHU216HW,2013-06-26 18:14:00,
2013-06-26 12:24:00,70.6,58.2,29.90,SE,135,1.8,3.6,65,0.00,,,0.04,WUHU216HW,2013-06-26 18:24:00,
2013-06-26 12:34:00,71.6,58.8,29.90,South,180,2.2,3.8,64,0.00,,,0.04,WUHU216HW,2013-06-26 18:34:00,
2013-06-26 12:44:00,72.4,58.6,29.90,SSE,158,4.0,4.0,62,0.00,,,0.04,WUHU216HW,2013-06-26 18:44:00,
2013-06-26 12:54:00,72.7,57.5,29.90,SSE,158,1.8,6.3,59,0.00,,,0.04,WUHU216HW,2013-06-26 18:54:00,
2013-06-26 13:04:00,72.7,57.5,29.89,South,180,1.1,4.5,59,0.00,,,0.04,WUHU216HW,2013-06-26 19:04:00,
2013-06-26 13:14:00,73.4,58.1,29.89,SSW,203,3.6,4.7,59,0.00,,,0.04,WUHU216HW,2013-06-26 19:14:00,
2013-06-26 13:24:00,74.2,56.3,29.89,West,270,2.7,5.1,54,0.00,,,0.04,WUHU216HW,2013-06-26 19:24:00,
2013-06-26 13:34:00,73.4,56.2,29.89,SSE,158,0.4,2.7,55,0.00,,,0.04,WUHU216HW,2013-06-26 19:34:00,
2013-06-26 13:44:00,72.2,55.5,29.90,North,0,0.0,1.1,56,0.00,,,0.04,WUHU216HW,2013-06-26 19:44:00,
2013-06-26 13:54:00,70.2,55.8,29.90,West,270,0.9,2.7,60,0.00,,,0.04,WUHU216HW,2013-06-26 19:54:00,
2013-06-26 14:04:00,69.7,55.7,29.90,North,0,4.0,4.0,61,0.00,,,0.04,WUHU216HW,2013-06-26 20:04:00,
2013-06-26 14:14:00,69.1,56.0,29.90,North,0,2.2,4.5,63,0.00,,,0.04,WUHU216HW,2013-06-26 20:14:00,
2013-06-26 14:24:00,68.4,55.7,29.90,NE,45,2.2,4.0,64,0.00,,,0.04,WUHU216HW,2013-06-26 20:24:00,
2013-06-26 14:34:00,67.9,56.1,29.91,NW,315,2.7,6.7,66,0.00,,,0.04,WUHU216HW,2013-06-26 20:34:00,
2013-06-26 14:44:00,67.3,56.8,29.91,NNE,23,3.1,5.1,69,0.00,,,0.04,WUHU216HW,2013-06-26 20:44:00,
2013-06-26 14:54:00,67.7,57.6,29.90,ENE,68,3.8,4.0,70,0.01,,,0.05,WUHU216HW,2013-06-26 20:54:00,
2013-06-26 15:04:00,68.0,57.1,29.90,East,90,3.8,4.3,68,0.01,,,0.05,WUHU216HW,2013-06-26 21:04:00,
2013-06-26 15:14:00,68.4,56.2,29.91,ENE,68,4.0,4.3,65,0.01,,,0.05,WUHU216HW,2013-06-26 21:14:00,
2013-06-26 15:24:00,68.0,55.8,29.91,North,0,2.9,3.8,65,0.01,,,0.05,WUHU216HW,2013-06-26 21:24:00,
2013-06-26 15:34:00,67.3,55.5,29.92,NNW,338,2.7,5.4,66,0.04,,,0.07,WUHU216HW,2013-06-26 21:34:00,
2013-06-26 15:44:00,66.4,56.3,29.92,WSW,248,0.9,2.5,70,0.07,,,0.12,WUHU216HW,2013-06-26 21:44:00,
2013-06-26 15:54:00,66.4,57.1,29.92,ENE,68,0.4,1.3,72,0.07,,,0.12,WUHU216HW,2013-06-26 21:54:00,
2013-06-26 16:04:00,66.8,57.9,29.92,ESE,113,0.4,1.8,73,0.07,,,0.12,WUHU216HW,2013-06-26 22:04:00,
2013-06-26 16:15:00,67.1,58.2,29.92,South,180,1.8,2.7,73,0.07,,,0.12,WUHU216HW,2013-06-26 22:15:00,
2013-06-26 16:25:00,67.1,57.1,29.92,ESE,113,0.7,4.7,70,0.07,,,0.12,WUHU216HW,2013-06-26 22:25:00,
2013-06-26 16:35:00,67.1,56.6,29.92,SSW,203,2.2,2.2,69,0.02,,,0.12,WUHU216HW,2013-06-26 22:35:00,
2013-06-26 16:45:00,67.3,57.2,29.92,SE,135,0.9,3.6,70,0.00,,,0.12,WUHU216HW,2013-06-26 22:45:00,
2013-06-26 16:55:00,67.9,56.9,29.91,ESE,113,1.8,5.6,68,0.00,,,0.12,WUHU216HW,2013-06-26 22:55:00,
2013-06-26 17:05:00,68.0,56.3,29.91,SSE,158,2.5,4.3,66,0.00,,,0.12,WUHU216HW,2013-06-26 23:05:00,
2013-06-26 17:15:00,67.9,56.1,29.91,ESE,113,2.5,3.6,66,0.00,,,0.12,WUHU216HW,2013-06-26 23:15:00,
2013-06-26 17:25:00,67.9,55.6,29.92,SSE,158,1.6,2.5,65,0.00,,,0.12,WUHU216HW,2013-06-26 23:25:00,
2013-06-26 17:35:00,67.5,55.3,29.92,SSE,158,0.0,1.6,65,0.00,,,0.12,WUHU216HW,2013-06-26 23:35:00,
2013-06-26 17:45:00,67.3,55.1,29.92,SSW,203,2.7,2.7,65,0.00,,,0.12,WUHU216HW,2013-06-26 23:45:00,
2013-06-26 17:55:00,67.1,54.9,29.93,SSW,203,1.1,2.7,65,0.00,,,0.12,WUHU216HW,2013-06-26 23:55:00,
2013-06-26 18:05:00,67.1,55.4,29.93,NE,45,0.4,2.2,66,0.00,,,0.12,WUHU216HW,2013-06-27 00:05:00,
2013-06-26 18:15:00,66.6,54.8,29.93,NNW,338,0.4,1.8,66,0.00,,,0.12,WUHU216HW,2013-06-27 00:15:00,
2013-06-26 18:25:00,66.2,54.9,29.94,NNW,338,0.2,2.2,67,0.00,,,0.12,WUHU216HW,2013-06-27 00:25:00,
2013-06-26 18:35:00,65.9,55.0,29.94,NNW,338,0.4,0.4,68,0.00,,,0.12,WUHU216HW,2013-06-27 00:35:00,
2013-06-26 18:45:00,65.5,54.6,29.94,ENE,68,2.0,2.7,68,0.00,,,0.12,WUHU216HW,2013-06-27 00:45:00,
2013-06-26 18:55:00,64.8,53.6,29.94,North,0,1.8,5.1,67,0.00,,,0.12,WUHU216HW,2013-06-27 00:55:00,
2013-06-26 19:05:00,65.0,53.3,29.94,NNE,23,1.3,1.6,66,0.00,,,0.12,WUHU216HW,2013-06-27 01:05:00,
2013-06-26 19:15:00,65.0,53.3,29.94,NE,45,2.5,2.5,66,0.00,,,0.12,WUHU216HW,2013-06-27 01:15:00,
2013-06-26 19:25:00,64.6,53.0,29.95,NW,315,0.4,2.7,66,0.00,,,0.12,WUHU216HW,2013-06-27 01:25:00,
2013-06-26 19:35:00,64.4,53.3,29.94,NNE,23,2.2,2.5,67,0.00,,,0.12,WUHU216HW,2013-06-27 01:35:00,
2013-06-26 19:45:00,64.1,53.3,29.95,North,0,0.2,2.5,68,0.00,,,0.12,WUHU216HW,2013-06-27 01:45:00,
2013-06-26 19:55:00,64.1,53.7,29.96,SW,225,1.1,2.0,69,0.00,,,0.12,WUHU216HW,2013-06-27 01:55:00,
2013-06-26 20:05:00,63.9,54.0,29.97,SSW,203,1.8,3.6,70,0.00,,,0.12,WUHU216HW,2013-06-27 02:05:00,
2013-06-26 20:15:00,63.5,54.0,29.97,SSW,203,1.8,4.0,71,0.00,,,0.12,WUHU216HW,2013-06-27 02:15:00,
2013-06-26 20:26:00,63.0,53.5,29.97,SSE,158,1.1,3.4,71,0.00,,,0.12,WUHU216HW,2013-06-27 02:26:00,
2013-06-26 20:36:00,62.6,53.1,29.97,SE,135,1.8,4.7,71,0.00,,,0.12,WUHU216HW,2013-06-27 02:36:00,
2013-06-26 20:46:00,61.9,51.7,29.97,SE,135,4.9,5.8,69,0.00,,,0.12,WUHU216HW,2013-06-27 02:46:00,
2013-06-26 20:56:00,61.2,51.5,29.96,East,90,2.0,4.0,70,0.00,,,0.12,WUHU216HW,2013-06-27 02:56:00,
2013-06-26 21:06:00,61.0,51.3,29.97,South,180,3.6,5.6,70,0.00,,,0.12,WUHU216HW,2013-06-27 03:06:00,
2013-06-26 21:16:00,60.8,51.1,29.97,South,180,4.7,5.1,70,0.00,,,0.12,WUHU216HW,2013-06-27 03:16:00,
2013-06-26 21:26:00,60.8,51.5,29.97,South,180,3.4,5.8,71,0.00,,,0.12,WUHU216HW,2013-06-27 03:26:00,
2013-06-26 21:36:00,60.8,51.5,29.97,SW,225,4.5,5.8,71,0.00,,,0.12,WUHU216HW,2013-06-27 03:36:00,
2013-06-26 21:46:00,60.5,51.5,29.98,South,180,2.2,5.6,72,0.00,,,0.12,WUHU216HW,2013-06-27 03:46:00,
2013-06-26 21:56:00,60.5,51.5,29.98,SSE,158,1.1,3.6,72,0.00,,,0.12,WUHU216HW,2013-06-27 03:56:00,
2013-06-26 22:06:00,60.3,51.7,29.99,South,180,4.7,4.7,73,0.00,,,0.12,WUHU216HW,2013-06-27 04:06:00,
2013-06-26 22:16:00,60.1,51.5,29.99,SE,135,1.3,4.0,73,0.00,,,0.12,WUHU216HW,2013-06-27 04:16:00,
2013-06-26 22:26:00,59.9,51.7,30.00,South,180,2.2,3.6,74,0.00,,,0.12,WUHU216HW,2013-06-27 04:26:00,
2013-06-26 22:36:00,59.9,51.7,30.00,SSW,203,1.6,4.3,74,0.00,,,0.12,WUHU216HW,2013-06-27 04:36:00,
2013-06-26 22:46:00,59.8,51.5,30.00,SE,135,0.0,2.0,74,0.00,,,0.12,WUHU216HW,2013-06-27 04:46:00,
2013-06-26 22:56:00,59.8,51.8,30.01,SE,135,0.0,0.9,75,0.00,,,0.12,WUHU216HW,2013-06-27 04:56:00,
2013-06-26 23:06:00,59.9,52.0,30.01,NNW,338,0.4,0.4,75,0.00,,,0.12,WUHU216HW,2013-06-27 05:06:00,
2013-06-26 23:16:00,59.8,52.2,30.01,West,270,0.4,0.9,76,0.00,,,0.12,WUHU216HW,2013-06-27 05:16:00,
2013-06-26 23:26:00,59.8,52.2,30.01,NNW,338,0.0,0.4,76,0.00,,,0.12,WUHU216HW,2013-06-27 05:26:00,
2013-06-26 23:36:00,59.6,52.0,30.01,East,90,0.9,0.9,76,0.00,,,0.12,WUHU216HW,2013-06-27 05:36:00,
2013-06-26 23:46:00,59.4,52.2,30.01,SE,135,0.4,2.2,77,0.00,,,0.12,WUHU216HW,2013-06-27 05:46:00,
2013-06-26 23:56:00,59.4,52.2,30.01,SE,135,0.0,0.9,77,0.00,,,0.12,WUHU216HW,2013-06-27 05:56:00,